PRIVATE WETTERSTATION BILLIGHEIM-ALLFELD                       ZURCK
Wetterdaten: Dienstag, 21.01.2014
Datum Zeit Temp. A. Temp. A. min Temp. A. max Feuchte A. Luftdruck Regen Wind Richtung Richtung Sonnenschein ET Solar Taupunkt Windchill Windben Empfang
21.01.2014 00:00 3,3 C 3,2 C 3,3 C 89 % 1007,2 hPa 0,0 l/m 1,6 km/h (1 Bft) SW 225 0 min 0,000 mm 0 W/m 1,7 C 3,3 C 4,8 km/h (1 Bft) 99 %
21.01.2014 00:10 3,2 C 3,2 C 3,3 C 89 % 1007,2 hPa 0,0 l/m 1,6 km/h (1 Bft) S-SW 202 0 min 0,000 mm 0 W/m 1,6 C 3,2 C 6,4 km/h (2 Bft) 100 %
21.01.2014 00:20 3,2 C 3,2 C 3,3 C 89 % 1007,3 hPa 0,2 l/m 1,6 km/h (1 Bft) SW 225 0 min 0,000 mm 0 W/m 1,6 C 3,2 C 9,7 km/h (2 Bft) 100 %
21.01.2014 00:30 3,2 C 3,2 C 3,2 C 89 % 1007,3 hPa 0,0 l/m 3,2 km/h (1 Bft) W 270 0 min 0,000 mm 0 W/m 1,6 C 3,2 C 8,0 km/h (2 Bft) 100 %
21.01.2014 00:40 3,2 C 3,2 C 3,2 C 88 % 1007,4 hPa 0,0 l/m 3,2 km/h (1 Bft) W 270 0 min 0,000 mm 0 W/m 1,4 C 3,2 C 9,7 km/h (2 Bft) 100 %
21.01.2014 00:50 3,2 C 3,1 C 3,2 C 88 % 1007,4 hPa 0,0 l/m 1,6 km/h (1 Bft) W 270 0 min 0,000 mm 0 W/m 1,4 C 3,2 C 8,0 km/h (2 Bft) 100 %
21.01.2014 01:00 3,1 C 3,1 C 3,2 C 88 % 1007,3 hPa 0,0 l/m 3,2 km/h (1 Bft) W 270 0 min 0,000 mm 0 W/m 1,3 C 3,1 C 9,7 km/h (2 Bft) 86 %
21.01.2014 01:10 3,1 C 3,1 C 3,1 C 88 % 1007,4 hPa 0,0 l/m 3,2 km/h (1 Bft) W-SW 247 0 min 0,000 mm 0 W/m 1,3 C 3,1 C 8,0 km/h (2 Bft) 100 %
21.01.2014 01:20 3,1 C 3,1 C 3,1 C 88 % 1007,5 hPa 0,0 l/m 1,6 km/h (1 Bft) W-SW 247 0 min 0,000 mm 0 W/m 1,3 C 3,1 C 8,0 km/h (2 Bft) 100 %
21.01.2014 01:30 3,0 C 3,0 C 3,1 C 88 % 1007,3 hPa 0,0 l/m 3,2 km/h (1 Bft) W-SW 247 0 min 0,000 mm 0 W/m 1,2 C 3,0 C 8,0 km/h (2 Bft) 100 %
21.01.2014 01:40 3,0 C 3,0 C 3,0 C 88 % 1007,4 hPa 0,0 l/m 1,6 km/h (1 Bft) W 270 0 min 0,000 mm 0 W/m 1,2 C 3,0 C 6,4 km/h (2 Bft) 100 %
21.01.2014 01:50 2,9 C 2,9 C 3,0 C 88 % 1007,5 hPa 0,0 l/m 1,6 km/h (1 Bft) W 270 0 min 0,000 mm 0 W/m 1,1 C 2,9 C 8,0 km/h (2 Bft) 100 %
21.01.2014 02:00 2,9 C 2,9 C 2,9 C 88 % 1007,6 hPa 0,0 l/m 1,6 km/h (1 Bft) W-NW 292 0 min 0,000 mm 0 W/m 1,1 C 2,9 C 6,4 km/h (2 Bft) 100 %
21.01.2014 02:10 2,9 C 2,9 C 2,9 C 88 % 1007,7 hPa 0,0 l/m 0,0 km/h (0 Bft) W-NW 292 0 min 0,000 mm 0 W/m 1,1 C 2,9 C 4,8 km/h (1 Bft) 100 %
21.01.2014 02:20 2,8 C 2,8 C 2,9 C 88 % 1007,8 hPa 0,0 l/m 0,0 km/h (0 Bft) W-NW 292 0 min 0,000 mm 0 W/m 1,0 C 2,8 C 3,2 km/h (1 Bft) 100 %
21.01.2014 02:30 2,8 C 2,8 C 2,8 C 88 % 1008,0 hPa 0,0 l/m 1,6 km/h (1 Bft) W 270 0 min 0,000 mm 0 W/m 1,0 C 2,8 C 6,4 km/h (2 Bft) 100 %
21.01.2014 02:40 2,8 C 2,8 C 2,8 C 88 % 1008,1 hPa 0,0 l/m 0,0 km/h (0 Bft) W 270 0 min 0,000 mm 0 W/m 1,0 C 2,8 C 3,2 km/h (1 Bft) 100 %
21.01.2014 02:50 2,8 C 2,8 C 2,8 C 88 % 1008,2 hPa 0,0 l/m 1,6 km/h (1 Bft) W 270 0 min 0,000 mm 0 W/m 1,0 C 2,8 C 6,4 km/h (2 Bft) 100 %
21.01.2014 03:00 2,8 C 2,8 C 2,8 C 88 % 1008,3 hPa 0,0 l/m 1,6 km/h (1 Bft) W 270 0 min 0,000 mm 0 W/m 1,0 C 2,8 C 6,4 km/h (2 Bft) 100 %
21.01.2014 03:10 2,8 C 2,8 C 2,8 C 88 % 1008,3 hPa 0,0 l/m 0,0 km/h (0 Bft) W 270 0 min 0,000 mm 0 W/m 1,0 C 2,8 C 3,2 km/h (1 Bft) 100 %
21.01.2014 03:20 2,8 C 2,8 C 2,8 C 88 % 1008,3 hPa 0,0 l/m 1,6 km/h (1 Bft) W 270 0 min 0,000 mm 0 W/m 1,0 C 2,8 C 8,0 km/h (2 Bft) 99 %
21.01.2014 03:30 2,8 C 2,8 C 2,8 C 88 % 1008,3 hPa 0,0 l/m 1,6 km/h (1 Bft) W 270 0 min 0,000 mm 0 W/m 1,0 C 2,8 C 4,8 km/h (1 Bft) 100 %
21.01.2014 03:40 2,7 C 2,7 C 2,8 C 88 % 1008,3 hPa 0,0 l/m 0,0 km/h (0 Bft) W 270 0 min 0,000 mm 0 W/m 0,9 C 2,7 C 4,8 km/h (1 Bft) 100 %
21.01.2014 03:50 2,7 C 2,7 C 2,8 C 88 % 1008,5 hPa 0,0 l/m 0,0 km/h (0 Bft) W 270 0 min 0,000 mm 0 W/m 0,9 C 2,7 C 3,2 km/h (1 Bft) 100 %
21.01.2014 04:00 2,7 C 2,7 C 2,7 C 88 % 1008,4 hPa 0,0 l/m 0,0 km/h (0 Bft) W 270 0 min 0,000 mm 0 W/m 0,9 C 2,7 C 3,2 km/h (1 Bft) 100 %
21.01.2014 04:10 2,7 C 2,7 C 2,7 C 88 % 1008,5 hPa 0,0 l/m 0,0 km/h (0 Bft) W 270 0 min 0,000 mm 0 W/m 0,9 C 2,7 C 3,2 km/h (1 Bft) 99 %
21.01.2014 04:20 2,7 C 2,7 C 2,7 C 88 % 1008,6 hPa 0,0 l/m 0,0 km/h (0 Bft) W 270 0 min 0,000 mm 0 W/m 0,9 C 2,7 C 4,8 km/h (1 Bft) 100 %
21.01.2014 04:30 2,7 C 2,7 C 2,7 C 89 % 1008,5 hPa 0,0 l/m 0,0 km/h (0 Bft) W 270 0 min 0,000 mm 0 W/m 1,1 C 2,7 C 4,8 km/h (1 Bft) 90 %
21.01.2014 04:40 2,7 C 2,7 C 2,7 C 89 % 1008,6 hPa 0,0 l/m 0,0 km/h (0 Bft) W 270 0 min 0,000 mm 0 W/m 1,1 C 2,7 C 1,6 km/h (1 Bft) 100 %
21.01.2014 04:50 2,6 C 2,6 C 2,7 C 89 % 1008,6 hPa 0,0 l/m 0,0 km/h (0 Bft) W 270 0 min 0,000 mm 0 W/m 1,0 C 2,6 C 3,2 km/h (1 Bft) 100 %
21.01.2014 05:00 2,6 C 2,6 C 2,7 C 89 % 1008,6 hPa 0,0 l/m 0,0 km/h (0 Bft) W 270 0 min 0,000 mm 0 W/m 1,0 C 2,6 C 4,8 km/h (1 Bft) 100 %
21.01.2014 05:10 2,6 C 2,6 C 2,6 C 89 % 1008,7 hPa 0,0 l/m 0,0 km/h (0 Bft) W 270 0 min 0,000 mm 0 W/m 1,0 C 2,6 C 3,2 km/h (1 Bft) 100 %
21.01.2014 05:20 2,6 C 2,6 C 2,6 C 89 % 1008,7 hPa 0,0 l/m 0,0 km/h (0 Bft) W 270 0 min 0,000 mm 0 W/m 1,0 C 2,6 C 4,8 km/h (1 Bft) 99 %
21.01.2014 05:30 2,6 C 2,6 C 2,6 C 89 % 1008,7 hPa 0,0 l/m 0,0 km/h (0 Bft) W 270 0 min 0,000 mm 0 W/m 1,0 C 2,6 C 3,2 km/h (1 Bft) 100 %
21.01.2014 05:40 2,6 C 2,6 C 2,6 C 89 % 1008,7 hPa 0,0 l/m 0,0 km/h (0 Bft) W 270 0 min 0,000 mm 0 W/m 1,0 C 2,6 C 3,2 km/h (1 Bft) 100 %
21.01.2014 05:50 2,6 C 2,6 C 2,6 C 89 % 1008,8 hPa 0,0 l/m 0,0 km/h (0 Bft) W 270 0 min 0,000 mm 0 W/m 1,0 C 2,6 C 3,2 km/h (1 Bft) 100 %
21.01.2014 06:00 2,5 C 2,5 C 2,6 C 89 % 1008,8 hPa 0,0 l/m 0,0 km/h (0 Bft) W 270 0 min 0,000 mm 0 W/m 0,9 C 2,5 C 3,2 km/h (1 Bft) 100 %
21.01.2014 06:10 2,5 C 2,5 C 2,6 C 89 % 1008,9 hPa 0,2 l/m 0,0 km/h (0 Bft) W 270 0 min 0,000 mm 0 W/m 0,9 C 2,5 C 3,2 km/h (1 Bft) 100 %
21.01.2014 06:20 2,5 C 2,5 C 2,5 C 89 % 1008,9 hPa 0,0 l/m 0,0 km/h (0 Bft) W 270 0 min 0,000 mm 0 W/m 0,9 C 2,5 C 4,8 km/h (1 Bft) 90 %
21.01.2014 06:30 2,5 C 2,5 C 2,5 C 89 % 1009,1 hPa 0,0 l/m 0,0 km/h (0 Bft) W 270 0 min 0,000 mm 0 W/m 0,9 C 2,5 C 3,2 km/h (1 Bft) 100 %
21.01.2014 06:40 2,4 C 2,4 C 2,5 C 89 % 1009,1 hPa 0,0 l/m 1,6 km/h (1 Bft) W-NW 292 0 min 0,000 mm 0 W/m 0,8 C 2,4 C 8,0 km/h (2 Bft) 100 %
21.01.2014 06:50 2,4 C 2,4 C 2,4 C 89 % 1009,3 hPa 0,0 l/m 1,6 km/h (1 Bft) W-NW 292 0 min 0,000 mm 0 W/m 0,8 C 2,4 C 8,0 km/h (2 Bft) 100 %
21.01.2014 07:00 2,4 C 2,4 C 2,4 C 89 % 1009,4 hPa 0,0 l/m 1,6 km/h (1 Bft) W-NW 292 0 min 0,000 mm 0 W/m 0,8 C 2,4 C 8,0 km/h (2 Bft) 100 %
21.01.2014 07:10 2,4 C 2,4 C 2,4 C 89 % 1009,5 hPa 0,0 l/m 0,0 km/h (0 Bft) W 270 0 min 0,000 mm 0 W/m 0,8 C 2,4 C 4,8 km/h (1 Bft) 100 %
21.01.2014 07:20 2,4 C 2,3 C 2,4 C 89 % 1009,6 hPa 0,0 l/m 1,6 km/h (1 Bft) W-NW 292 0 min 0,000 mm 0 W/m 0,8 C 2,4 C 4,8 km/h (1 Bft) 99 %
21.01.2014 07:30 2,3 C 2,3 C 2,4 C 89 % 1009,6 hPa 0,2 l/m 0,0 km/h (0 Bft) W-NW 292 0 min 0,000 mm 0 W/m 0,7 C 2,3 C 4,8 km/h (1 Bft) 100 %
21.01.2014 07:40 2,3 C 2,3 C 2,3 C 89 % 1009,7 hPa 0,0 l/m 0,0 km/h (0 Bft) W 270 0 min 0,000 mm 0 W/m 0,7 C 2,3 C 4,8 km/h (1 Bft) 100 %
21.01.2014 07:50 2,3 C 2,3 C 2,3 C 89 % 1009,8 hPa 0,0 l/m 0,0 km/h (0 Bft) W 270 0 min 0,000 mm 0 W/m 0,7 C 2,3 C 1,6 km/h (1 Bft) 100 %
21.01.2014 08:00 2,2 C 2,2 C 2,3 C 89 % 1009,9 hPa 0,2 l/m 0,0 km/h (0 Bft) W 270 0 min 0,000 mm 0 W/m 0,6 C 2,2 C 4,8 km/h (1 Bft) 91 %
21.01.2014 08:10 2,2 C 2,2 C 2,2 C 89 % 1010,0 hPa 0,0 l/m 0,0 km/h (0 Bft) W-NW 292 0 min 0,000 mm 0 W/m 0,6 C 2,2 C 1,6 km/h (1 Bft) 100 %
21.01.2014 08:20 2,2 C 2,2 C 2,2 C 89 % 1010,1 hPa 0,0 l/m 0,0 km/h (0 Bft) W-NW 292 0 min 0,000 mm 0 W/m 0,6 C 2,2 C 3,2 km/h (1 Bft) 100 %
21.01.2014 08:30 2,1 C 2,1 C 2,2 C 89 % 1010,0 hPa 0,0 l/m 0,0 km/h (0 Bft) W-NW 292 0 min 0,000 mm 5 W/m 0,5 C 2,1 C 3,2 km/h (1 Bft) 100 %
21.01.2014 08:40 2,1 C 2,1 C 2,2 C 89 % 1010,2 hPa 0,0 l/m 0,0 km/h (0 Bft) W 270 0 min 0,000 mm 9 W/m 0,5 C 2,1 C 4,8 km/h (1 Bft) 100 %
21.01.2014 08:50 2,1 C 2,1 C 2,1 C 89 % 1010,3 hPa 0,0 l/m 0,0 km/h (0 Bft) W 270 0 min 0,000 mm 12 W/m 0,5 C 2,1 C 4,8 km/h (1 Bft) 100 %
21.01.2014 09:00 2,1 C 2,1 C 2,1 C 89 % 1010,4 hPa 0,0 l/m 1,6 km/h (1 Bft) W-NW 292 0 min 0,000 mm 14 W/m 0,5 C 2,1 C 4,8 km/h (1 Bft) 100 %
21.01.2014 09:10 2,1 C 2,0 C 2,1 C 89 % 1010,6 hPa 0,0 l/m 1,6 km/h (1 Bft) W 270 0 min 0,000 mm 18 W/m 0,5 C 2,1 C 6,4 km/h (2 Bft) 99 %
21.01.2014 09:20 2,0 C 2,0 C 2,1 C 89 % 1010,6 hPa 0,2 l/m 0,0 km/h (0 Bft) W 270 0 min 0,000 mm 28 W/m 0,4 C 2,0 C 1,6 km/h (1 Bft) 100 %
21.01.2014 09:30 2,0 C 2,0 C 2,0 C 89 % 1010,7 hPa 0,0 l/m 0,0 km/h (0 Bft) W 270 0 min 0,000 mm 37 W/m 0,4 C 2,0 C 3,2 km/h (1 Bft) 100 %
21.01.2014 09:40 2,0 C 2,0 C 2,1 C 89 % 1010,9 hPa 0,0 l/m 0,0 km/h (0 Bft) W 270 0 min 0,000 mm 46 W/m 0,4 C 2,0 C 4,8 km/h (1 Bft) 88 %
21.01.2014 09:50 2,1 C 2,0 C 2,1 C 89 % 1011,0 hPa 0,2 l/m 0,0 km/h (0 Bft) W 270 0 min 0,000 mm 53 W/m 0,5 C 2,1 C 4,8 km/h (1 Bft) 100 %
21.01.2014 10:00 2,1 C 2,0 C 2,1 C 89 % 1010,9 hPa 0,0 l/m 0,9 km/h (0 Bft) W-SW 251 0 min 0,000 mm 51 W/m 0,5 C 2,1 C 3,2 km/h (1 Bft) 100 %
21.01.2014 10:10 2,1 C 2,1 C 2,1 C 89 % 1011,0 hPa 0,0 l/m 0,5 km/h (0 Bft) W-SW 245 0 min 0,025 mm 40 W/m 0,5 C 2,1 C 4,8 km/h (1 Bft) 91 %
21.01.2014 10:20 2,1 C 2,1 C 2,1 C 89 % 1011,2 hPa 0,0 l/m 0,4 km/h (0 Bft) W-SW 246 0 min 0,000 mm 28 W/m 0,5 C 2,1 C 4,8 km/h (1 Bft) 100 %
21.01.2014 10:30 2,1 C 2,1 C 2,1 C 89 % 1011,3 hPa 0,0 l/m 1,1 km/h (1 Bft) W-NW 288 0 min 0,000 mm 35 W/m 0,5 C 2,1 C 4,8 km/h (1 Bft) 100 %
21.01.2014 10:40 2,1 C 2,1 C 2,1 C 89 % 1011,4 hPa 0,2 l/m 1,0 km/h (0 Bft) W 267 0 min 0,000 mm 35 W/m 0,5 C 2,1 C 8,0 km/h (2 Bft) 100 %
21.01.2014 10:50 2,0 C 2,0 C 2,1 C 89 % 1011,5 hPa 0,0 l/m 1,9 km/h (1 Bft) W-NW 302 0 min 0,000 mm 51 W/m 0,4 C 2,0 C 6,4 km/h (2 Bft) 100 %
21.01.2014 11:00 1,9 C 1,9 C 2,0 C 89 % 1011,5 hPa 0,2 l/m 2,5 km/h (1 Bft) W 271 0 min 0,000 mm 74 W/m 0,3 C 1,9 C 11,3 km/h (2 Bft) 99 %
21.01.2014 11:10 1,9 C 1,9 C 1,9 C 89 % 1011,5 hPa 0,0 l/m 0,5 km/h (0 Bft) W-NW 289 0 min 0,025 mm 37 W/m 0,3 C 1,9 C 4,8 km/h (1 Bft) 100 %
21.01.2014 11:20 1,9 C 1,9 C 2,0 C 89 % 1011,5 hPa 0,2 l/m 0,8 km/h (0 Bft) W-NW 300 0 min 0,001 mm 28 W/m 0,3 C 1,9 C 4,8 km/h (1 Bft) 100 %
21.01.2014 11:30 1,9 C 1,9 C 1,9 C 89 % 1011,6 hPa 0,0 l/m 1,1 km/h (1 Bft) NW 309 0 min 0,000 mm 69 W/m 0,3 C 1,9 C 4,8 km/h (1 Bft) 100 %
21.01.2014 11:40 1,9 C 1,8 C 1,9 C 89 % 1011,5 hPa 0,2 l/m 1,5 km/h (1 Bft) W-NW 296 0 min 0,000 mm 77 W/m 0,3 C 1,9 C 6,4 km/h (2 Bft) 100 %
21.01.2014 11:50 2,0 C 1,9 C 2,1 C 89 % 1011,5 hPa 0,0 l/m 4,2 km/h (1 Bft) NW 306 0 min 0,000 mm 63 W/m 0,4 C 2,0 C 11,3 km/h (2 Bft) 100 %
21.01.2014 12:00 2,2 C 2,0 C 2,2 C 89 % 1011,6 hPa 0,0 l/m 3,9 km/h (1 Bft) W-NW 286 0 min 0,025 mm 53 W/m 0,6 C 2,2 C 9,7 km/h (2 Bft) 100 %
21.01.2014 12:10 2,2 C 2,2 C 2,2 C 89 % 1011,6 hPa 0,0 l/m 4,6 km/h (1 Bft) W-NW 298 0 min 0,000 mm 53 W/m 0,6 C 2,2 C 11,3 km/h (2 Bft) 100 %
21.01.2014 12:20 2,2 C 2,2 C 2,3 C 89 % 1011,4 hPa 0,0 l/m 4,9 km/h (1 Bft) W 281 0 min 0,000 mm 54 W/m 0,6 C 2,2 C 11,3 km/h (2 Bft) 100 %
21.01.2014 12:30 2,3 C 2,2 C 2,3 C 89 % 1011,3 hPa 0,0 l/m 2,5 km/h (1 Bft) W 275 0 min 0,000 mm 58 W/m 0,7 C 2,3 C 9,7 km/h (2 Bft) 100 %
21.01.2014 12:40 2,3 C 2,2 C 2,3 C 90 % 1011,2 hPa 0,0 l/m 4,8 km/h (1 Bft) NW 305 0 min 0,000 mm 62 W/m 0,8 C 2,3 C 14,5 km/h (3 Bft) 100 %
21.01.2014 12:50 2,3 C 2,3 C 2,3 C 89 % 1011,3 hPa 0,0 l/m 2,8 km/h (1 Bft) W 272 0 min 0,000 mm 98 W/m 0,7 C 2,3 C 9,7 km/h (2 Bft) 100 %
21.01.2014 13:00 2,3 C 2,3 C 2,4 C 89 % 1011,3 hPa 0,0 l/m 2,5 km/h (1 Bft) W 263 0 min 0,026 mm 56 W/m 0,7 C 2,3 C 8,0 km/h (2 Bft) 100 %
21.01.2014 13:10 2,4 C 2,3 C 2,4 C 89 % 1011,3 hPa 0,0 l/m 3,0 km/h (1 Bft) W-NW 302 0 min 0,000 mm 49 W/m 0,8 C 2,4 C 9,7 km/h (2 Bft) 100 %
21.01.2014 13:20 2,4 C 2,3 C 2,4 C 90 % 1011,2 hPa 0,0 l/m 2,4 km/h (1 Bft) W-SW 258 0 min 0,000 mm 47 W/m 0,9 C 2,4 C 9,7 km/h (2 Bft) 100 %
21.01.2014 13:30 2,3 C 2,3 C 2,4 C 90 % 1011,1 hPa 0,0 l/m 2,7 km/h (1 Bft) W-NW 284 0 min 0,000 mm 72 W/m 0,8 C 2,3 C 9,7 km/h (2 Bft) 100 %
21.01.2014 13:40 2,4 C 2,3 C 2,4 C 90 % 1011,1 hPa 0,0 l/m 0,2 km/h (0 Bft) W-NW 294 0 min 0,000 mm 51 W/m 0,9 C 2,4 C 3,2 km/h (1 Bft) 100 %
21.01.2014 13:50 2,4 C 2,4 C 2,5 C 89 % 1011,2 hPa 0,0 l/m 1,0 km/h (0 Bft) W-NW 289 0 min 0,000 mm 46 W/m 0,8 C 2,4 C 4,8 km/h (1 Bft) 100 %
21.01.2014 14:00 2,4 C 2,4 C 2,5 C 89 % 1011,2 hPa 0,0 l/m 2,3 km/h (1 Bft) W 279 0 min 0,025 mm 37 W/m 0,8 C 2,4 C 8,0 km/h (2 Bft) 100 %
21.01.2014 14:10 2,5 C 2,4 C 2,5 C 90 % 1011,2 hPa 0,0 l/m 0,7 km/h (0 Bft) W 259 0 min 0,000 mm 32 W/m 1,0 C 2,5 C 8,0 km/h (2 Bft) 100 %
21.01.2014 14:20 2,5 C 2,5 C 2,6 C 90 % 1011,2 hPa 0,0 l/m 1,3 km/h (1 Bft) W-NW 289 0 min 0,000 mm 25 W/m 1,0 C 2,5 C 8,0 km/h (2 Bft) 100 %
21.01.2014 14:30 2,5 C 2,5 C 2,6 C 90 % 1011,2 hPa 0,0 l/m 2,1 km/h (1 Bft) W-NW 298 0 min 0,000 mm 19 W/m 1,0 C 2,5 C 8,0 km/h (2 Bft) 100 %
21.01.2014 14:40 2,5 C 2,5 C 2,5 C 90 % 1011,3 hPa 0,0 l/m 0,4 km/h (0 Bft) W-NW 290 0 min 0,000 mm 19 W/m 1,0 C 2,5 C 3,2 km/h (1 Bft) 100 %
21.01.2014 14:50 2,5 C 2,5 C 2,5 C 90 % 1011,4 hPa 0,0 l/m 0,4 km/h (0 Bft) W-NW 290 0 min 0,000 mm 18 W/m 1,0 C 2,5 C 3,2 km/h (1 Bft) 100 %
21.01.2014 15:00 2,5 C 2,5 C 2,5 C 90 % 1011,4 hPa 0,0 l/m 0,5 km/h (0 Bft) W-NW 292 0 min 0,000 mm 18 W/m 1,0 C 2,5 C 4,8 km/h (1 Bft) 100 %
21.01.2014 15:10 2,5 C 2,5 C 2,6 C 89 % 1011,5 hPa 0,0 l/m 0,7 km/h (0 Bft) W-NW 293 0 min 0,000 mm 18 W/m 0,9 C 2,5 C 4,8 km/h (1 Bft) 100 %
21.01.2014 15:20 2,5 C 2,5 C 2,6 C 89 % 1011,5 hPa 0,0 l/m 0,0 km/h (0 Bft) W-NW 293 0 min 0,000 mm 16 W/m 0,9 C 2,5 C 0,0 km/h (0 Bft) 100 %
21.01.2014 15:30 2,5 C 2,5 C 2,5 C 89 % 1011,7 hPa 0,0 l/m 0,2 km/h (0 Bft) W-NW 293 0 min 0,000 mm 11 W/m 0,9 C 2,5 C 3,2 km/h (1 Bft) 100 %
21.01.2014 15:40 2,5 C 2,4 C 2,5 C 89 % 1011,8 hPa 0,0 l/m 0,4 km/h (0 Bft) W-NW 300 0 min 0,000 mm 9 W/m 0,9 C 2,5 C 4,8 km/h (1 Bft) 100 %
21.01.2014 15:50 2,4 C 2,4 C 2,5 C 89 % 1011,9 hPa 0,0 l/m 0,4 km/h (0 Bft) W-NW 300 0 min 0,000 mm 7 W/m 0,8 C 2,4 C 3,2 km/h (1 Bft) 100 %
21.01.2014 16:00 2,4 C 2,4 C 2,4 C 89 % 1011,9 hPa 0,0 l/m 0,3 km/h (0 Bft) W-NW 300 0 min 0,000 mm 7 W/m 0,8 C 2,4 C 3,2 km/h (1 Bft) 100 %
21.01.2014 16:10 2,3 C 2,3 C 2,4 C 89 % 1012,0 hPa 0,0 l/m 0,0 km/h (0 Bft) W-NW 300 0 min 0,000 mm 7 W/m 0,7 C 2,3 C 0,0 km/h (0 Bft) 100 %
21.01.2014 16:20 2,3 C 2,3 C 2,4 C 89 % 1012,2 hPa 0,0 l/m 0,1 km/h (0 Bft) W-NW 300 0 min 0,000 mm 7 W/m 0,7 C 2,3 C 1,6 km/h (1 Bft) 100 %
21.01.2014 16:30 2,3 C 2,3 C 2,3 C 89 % 1012,2 hPa 0,0 l/m 0,4 km/h (0 Bft) N-NW 340 0 min 0,000 mm 5 W/m 0,7 C 2,3 C 4,8 km/h (1 Bft) 100 %
21.01.2014 16:40 2,3 C 2,3 C 2,3 C 89 % 1012,3 hPa 0,0 l/m 1,2 km/h (1 Bft) NW 307 0 min 0,000 mm 5 W/m 0,7 C 2,3 C 4,8 km/h (1 Bft) 100 %
21.01.2014 16:50 2,3 C 2,3 C 2,3 C 89 % 1012,2 hPa 0,0 l/m 0,4 km/h (0 Bft) W-NW 303 0 min 0,000 mm 0 W/m 0,7 C 2,3 C 4,8 km/h (1 Bft) 100 %
21.01.2014 17:00 2,3 C 2,2 C 2,3 C 89 % 1012,2 hPa 0,0 l/m 1,1 km/h (1 Bft) W-NW 285 0 min 0,000 mm 0 W/m 0,7 C 2,3 C 4,8 km/h (1 Bft) 100 %
21.01.2014 17:10 2,2 C 2,2 C 2,3 C 89 % 1012,3 hPa 0,0 l/m 1,1 km/h (1 Bft) W 278 0 min 0,000 mm 0 W/m 0,6 C 2,2 C 6,4 km/h (2 Bft) 100 %
21.01.2014 17:20 2,2 C 2,2 C 2,2 C 89 % 1012,3 hPa 0,0 l/m 0,4 km/h (0 Bft) W-SW 251 0 min 0,000 mm 0 W/m 0,6 C 2,2 C 4,8 km/h (1 Bft) 100 %
21.01.2014 17:30 2,2 C 2,2 C 2,2 C 89 % 1012,5 hPa 0,0 l/m 0,3 km/h (0 Bft) W-SW 251 0 min 0,000 mm 0 W/m 0,6 C 2,2 C 3,2 km/h (1 Bft) 100 %
21.01.2014 17:40 2,2 C 2,2 C 2,2 C 89 % 1012,6 hPa 0,0 l/m 0,1 km/h (0 Bft) W-SW 251 0 min 0,000 mm 0 W/m 0,6 C 2,2 C 1,6 km/h (1 Bft) 100 %
21.01.2014 17:50 2,2 C 2,2 C 2,2 C 89 % 1012,5 hPa 0,0 l/m 0,1 km/h (0 Bft) W-SW 251 0 min 0,000 mm 0 W/m 0,6 C 2,2 C 4,8 km/h (1 Bft) 100 %
21.01.2014 18:00 2,1 C 2,1 C 2,2 C 89 % 1012,5 hPa 0,0 l/m 0,0 km/h (0 Bft) W-SW 251 0 min 0,000 mm 0 W/m 0,5 C 2,1 C 0,0 km/h (0 Bft) 100 %
21.01.2014 18:10 2,1 C 2,1 C 2,1 C 89 % 1012,6 hPa 0,0 l/m 0,1 km/h (0 Bft) W-SW 251 0 min 0,000 mm 0 W/m 0,5 C 2,1 C 1,6 km/h (1 Bft) 100 %
21.01.2014 18:20 2,1 C 2,1 C 2,1 C 89 % 1012,6 hPa 0,0 l/m 0,1 km/h (0 Bft) W-SW 251 0 min 0,000 mm 0 W/m 0,5 C 2,1 C 1,6 km/h (1 Bft) 100 %
21.01.2014 18:30 2,1 C 2,1 C 2,1 C 89 % 1012,8 hPa 0,0 l/m 0,0 km/h (0 Bft) W-SW 251 0 min 0,000 mm 0 W/m 0,5 C 2,1 C 0,0 km/h (0 Bft) 100 %
21.01.2014 18:40 2,1 C 2,1 C 2,1 C 89 % 1012,8 hPa 0,0 l/m 0,1 km/h (0 Bft) W-SW 251 0 min 0,000 mm 0 W/m 0,5 C 2,1 C 1,6 km/h (1 Bft) 99 %
21.01.2014 18:50 2,1 C 2,1 C 2,1 C 89 % 1012,8 hPa 0,0 l/m 0,2 km/h (0 Bft) W-SW 251 0 min 0,000 mm 0 W/m 0,5 C 2,1 C 1,6 km/h (1 Bft) 99 %
21.01.2014 19:00 2,1 C 2,1 C 2,1 C 89 % 1012,8 hPa 0,0 l/m 0,2 km/h (0 Bft) W-SW 251 0 min 0,000 mm 0 W/m 0,5 C 2,1 C 1,6 km/h (1 Bft) 100 %
21.01.2014 19:10 2,1 C 2,1 C 2,1 C 89 % 1012,8 hPa 0,0 l/m 0,1 km/h (0 Bft) W-SW 251 0 min 0,000 mm 0 W/m 0,5 C 2,1 C 1,6 km/h (1 Bft) 99 %
21.01.2014 19:20 2,1 C 2,1 C 2,1 C 89 % 1012,8 hPa 0,0 l/m 0,1 km/h (0 Bft) W-SW 251 0 min 0,000 mm 0 W/m 0,5 C 2,1 C 3,2 km/h (1 Bft) 99 %
21.01.2014 19:30 2,1 C 2,1 C 2,1 C 88 % 1012,9 hPa 0,0 l/m 0,4 km/h (0 Bft) W-SW 251 0 min 0,000 mm 0 W/m 0,3 C 2,1 C 3,2 km/h (1 Bft) 99 %
21.01.2014 19:40 2,1 C 2,1 C 2,1 C 88 % 1012,9 hPa 0,0 l/m 0,2 km/h (0 Bft) W-SW 251 0 min 0,000 mm 0 W/m 0,3 C 2,1 C 3,2 km/h (1 Bft) 100 %
21.01.2014 19:50 2,1 C 2,1 C 2,1 C 88 % 1012,9 hPa 0,0 l/m 0,1 km/h (0 Bft) W-SW 251 0 min 0,000 mm 0 W/m 0,3 C 2,1 C 1,6 km/h (1 Bft) 100 %
21.01.2014 20:00 2,1 C 2,1 C 2,1 C 88 % 1012,9 hPa 0,0 l/m 0,5 km/h (0 Bft) W-SW 251 0 min 0,000 mm 0 W/m 0,3 C 2,1 C 3,2 km/h (1 Bft) 100 %
21.01.2014 20:10 2,0 C 2,0 C 2,1 C 88 % 1012,8 hPa 0,0 l/m 0,0 km/h (0 Bft) W-SW 251 0 min 0,000 mm 0 W/m 0,2 C 2,0 C 1,6 km/h (1 Bft) 99 %
21.01.2014 20:20 1,9 C 1,9 C 2,0 C 89 % 1012,8 hPa 0,0 l/m 0,8 km/h (0 Bft) W-SW 249 0 min 0,000 mm 0 W/m 0,3 C 1,9 C 4,8 km/h (1 Bft) 99 %
21.01.2014 20:30 1,9 C 1,9 C 1,9 C 89 % 1012,9 hPa 0,0 l/m 0,2 km/h (0 Bft) W-SW 249 0 min 0,000 mm 0 W/m 0,3 C 1,9 C 3,2 km/h (1 Bft) 99 %
21.01.2014 20:40 1,9 C 1,9 C 1,9 C 88 % 1012,9 hPa 0,0 l/m 0,0 km/h (0 Bft) W-SW 249 0 min 0,000 mm 0 W/m 0,1 C 1,9 C 1,6 km/h (1 Bft) 99 %
21.01.2014 20:50 1,9 C 1,9 C 1,9 C 88 % 1012,9 hPa 0,0 l/m 0,2 km/h (0 Bft) W-SW 249 0 min 0,000 mm 0 W/m 0,1 C 1,9 C 1,6 km/h (1 Bft) 99 %
21.01.2014 21:00 1,9 C 1,9 C 1,9 C 88 % 1013,0 hPa 0,0 l/m 0,1 km/h (0 Bft) W-SW 249 0 min 0,000 mm 0 W/m 0,1 C 1,9 C 1,6 km/h (1 Bft) 100 %
21.01.2014 21:10 1,9 C 1,9 C 1,9 C 88 % 1013,0 hPa 0,0 l/m 0,0 km/h (0 Bft) W-SW 247 0 min 0,000 mm 0 W/m 0,1 C 1,9 C 1,6 km/h (1 Bft) 98 %
21.01.2014 21:20 1,9 C 1,9 C 2,0 C 88 % 1013,0 hPa 0,0 l/m 0,0 km/h (0 Bft) W-SW 247 0 min 0,000 mm 0 W/m 0,1 C 1,9 C 1,6 km/h (1 Bft) 98 %
21.01.2014 21:30 2,0 C 1,9 C 2,0 C 88 % 1012,9 hPa 0,0 l/m 1,6 km/h (1 Bft) W-SW 247 0 min 0,000 mm 0 W/m 0,2 C 2,0 C 3,2 km/h (1 Bft) 98 %
21.01.2014 21:40 2,0 C 2,0 C 2,0 C 88 % 1012,9 hPa 0,0 l/m 0,0 km/h (0 Bft) W-SW 247 0 min 0,000 mm 0 W/m 0,2 C 2,0 C 1,6 km/h (1 Bft) 98 %
21.01.2014 21:50 2,0 C 2,0 C 2,1 C 88 % 1012,8 hPa 0,0 l/m 0,0 km/h (0 Bft) W-SW 247 0 min 0,000 mm 0 W/m 0,2 C 2,0 C 4,8 km/h (1 Bft) 97 %
21.01.2014 22:00 2,1 C 2,0 C 2,1 C 88 % 1012,9 hPa 0,0 l/m 0,0 km/h (0 Bft) W-SW 247 0 min 0,000 mm 0 W/m 0,3 C 2,1 C 3,2 km/h (1 Bft) 97 %
21.01.2014 22:10 2,1 C 2,1 C 2,1 C 88 % 1012,8 hPa 0,0 l/m 1,6 km/h (1 Bft) W-SW 247 0 min 0,000 mm 0 W/m 0,3 C 2,1 C 4,8 km/h (1 Bft) 98 %
21.01.2014 22:20 2,1 C 2,1 C 2,1 C 88 % 1012,7 hPa 0,0 l/m 0,0 km/h (0 Bft) W-SW 247 0 min 0,000 mm 0 W/m 0,3 C 2,1 C 3,2 km/h (1 Bft) 97 %
21.01.2014 22:30 2,1 C 2,1 C 2,1 C 88 % 1012,9 hPa 0,0 l/m 0,0 km/h (0 Bft) W-SW 247 0 min 0,000 mm 0 W/m 0,3 C 2,1 C 3,2 km/h (1 Bft) 99 %
21.01.2014 22:40 2,1 C 2,1 C 2,1 C 88 % 1012,9 hPa 0,0 l/m 1,6 km/h (1 Bft) W-SW 247 0 min 0,000 mm 0 W/m 0,3 C 2,1 C 4,8 km/h (1 Bft) 98 %
21.01.2014 22:50 2,1 C 2,1 C 2,1 C 88 % 1012,8 hPa 0,0 l/m 0,0 km/h (0 Bft) W-SW 247 0 min 0,000 mm 0 W/m 0,3 C 2,1 C 3,2 km/h (1 Bft) 98 %
21.01.2014 23:00 2,2 C 2,1 C 2,2 C 88 % 1012,8 hPa 0,0 l/m 0,0 km/h (0 Bft) W-SW 247 0 min 0,000 mm 0 W/m 0,4 C 2,2 C 3,2 km/h (1 Bft) 99 %
21.01.2014 23:10 2,2 C 2,1 C 2,2 C 88 % 1012,8 hPa 0,0 l/m 0,0 km/h (0 Bft) W-SW 247 0 min 0,000 mm 0 W/m 0,4 C 2,2 C 3,2 km/h (1 Bft) 91 %
21.01.2014 23:20 2,2 C 2,2 C 2,2 C 88 % 1012,7 hPa 0,0 l/m 0,0 km/h (0 Bft) W-SW 247 0 min 0,000 mm 0 W/m 0,4 C 2,2 C 4,8 km/h (1 Bft) 100 %
21.01.2014 23:30 2,2 C 2,2 C 2,2 C 88 % 1012,8 hPa 0,0 l/m 1,6 km/h (1 Bft) W-SW 247 0 min 0,000 mm 0 W/m 0,4 C 2,2 C 4,8 km/h (1 Bft) 100 %
21.01.2014 23:40 2,2 C 2,2 C 2,2 C 89 % 1012,8 hPa 0,0 l/m 0,0 km/h (0 Bft) S 180 0 min 0,000 mm 0 W/m 0,6 C 2,2 C 4,8 km/h (1 Bft) 99 %
21.01.2014 23:50 2,2 C 2,2 C 2,2 C 89 % 1012,8 hPa 0,0 l/m 0,0 km/h (0 Bft) S 180 0 min 0,000 mm 0 W/m 0,6 C 2,2 C 3,2 km/h (1 Bft) 100 %
_ Min-Zeit 11:40 11:40 11:10 00:40 00:00 - 02:10 - - - - - 20:40 11:00 15:20 01:00
Minimum _ 1,8 C 1,8 C 1,9 C 88 % 1007,2 hPa - 0,0 km/h (0 Bft) - - - - - 0,1 C 1,9 C 0,0 km/h (0 Bft) 86 %
_ Max-Zeit 00:00 00:00 00:00 12:40 21:00 00:20 12:20 - - 00:00 13:00 12:50 00:00 00:00 12:40 00:10
Maximum _ 3,3 C 3,2 C 3,3 C 90 % 1013,0 hPa 0,2 l/m 4,9 km/h
W (1 Bft)
- - 0 min 0,026 mm 98 W/m 1,7 C 3,3 C 14,5 km/h
W (3 Bft)
100 %
Durchschnitt _ 2,4 C 2,3 C 2,4 C 89 % 1010,7 hPa #2,0 l/m 0,9 km/h (0 Bft) W - #0 min. #0,127 mm 35 W/m 0,7 C 2,4 C 4,8 km/h (1 Bft) 99 %
PRIVATE WETTERSTATION BILLIGHEIM-ALLFELD - www.neckar-odenwald-wetter.de - Holger Sonntag